This demonstration page uses our WeatherBlox Daily Observations layout. Learn more.

38.89511, -77.03637

Hourly Observations for January 24, 2018

Temp ( °F °C ) Dew Point ( °F °C ) Humidity (%) Winds ( mph kmh ) Pressure ( in mb ) Visibility ( mi km ) Precip ( " mm )
12:52 am 00:52 Mostly Clear 47 8.3 27 -2.8 46 46 W 10 17 29.88 1012 10 16.0934 0 0
1:52 am 01:52 Mostly Clear 46 7.8 28 -2.2 50 50 W 7 11 29.91 1013 10 16.0934 0 0
2:52 am 02:52 Mostly Clear 45 7.2 28 -2.2 52 52 W 8 13 29.93 1014 10 16.0934 0 0
3:52 am 03:52 Mostly Clear 46 7.8 28 -2.2 50 50 WSW 7 11 29.94 1014 10 16.0934 0 0
4:52 am 04:52 Mostly Clear 45 7.2 28 -2.2 52 52 WNW 7 11 29.98 1015 10 16.0934 0 0
5:52 am 05:52 Mostly Clear 44 6.7 28 -2.2 53 53 WNW 10 17 30.01 1016 10 16.0934 0 0
6:52 am 06:52 Partly Cloudy 44 6.7 28 -2.2 53 53 WNW 9 15 30.02 1017 10 16.0934 0 0
7:52 am 07:52 Mostly Sunny 44 6.7 28 -2.2 53 53 W 13 20 30.04 1017 10 16.0934 0 0
8:52 am 08:52 Mostly Cloudy 45 7.2 28 -2.2 52 52 NW 14 22 30.05 1018 10 16.0934 0 0
9:52 am 09:52 Mostly Cloudy 46 7.8 27 -2.8 47 47 NW 18 30 30.07 1018 10 16.0934 0 0
10:52 am 10:52 Cloudy 45 7.2 28 -2.2 52 52 NW 10 17 30.1 1019 10 16.0934 0 0
11:52 am 11:52 Mostly Cloudy 48 8.9 27 -2.8 44 44 WNW 14 22 30.09 1019 10 16.0934 0 0
12:52 pm 12:52 Mostly Cloudy 44 6.7 26 -3.3 49 49 NW 17 28 30.09 1019 10 16.0934 0 0
1:52 pm 13:52 Mostly Cloudy 44 6.7 25 -3.9 47 47 NNW 16 26 30.09 1019 10 16.0934 0 0
2:52 pm 14:52 Mostly Cloudy 46 7.8 24 -4.4 42 42 WNW 12 19 30.1 1019 10 16.0934 0 0
3:52 pm 15:52 Mostly Cloudy 44 6.7 24 -4.4 45 45 NW 13 20 30.11 1020 10 16.0934 0 0
4:52 pm 16:52 Mostly Cloudy 42 5.6 24 -4.4 49 49 NW 17 28 30.12 1020 10 16.0934 0 0
5:52 pm 17:52 Mostly Cloudy 40 4.4 26 -3.3 58 58 NNW 21 33 30.15 1021 10 16.0934 0 0
6:52 pm 18:52 Mostly Cloudy 39 3.9 26 -3.3 60 60 NNW 21 33 30.18 1022 10 16.0934 0 0
7:52 pm 19:52 Mostly Cloudy 39 3.9 23 -5 53 53 NNW 18 30 30.2 1023 10 16.0934 0 0
8:52 pm 20:52 Mostly Cloudy 38 3.3 21 -6.1 51 51 NNW 18 30 30.2 1023 10 16.0934 0 0
9:52 pm 21:52 Mostly Cloudy 37 2.8 22 -5.6 54 54 NW 14 22 30.22 1023 10 16.0934 0 0
10:52 pm 22:52 Mostly Cloudy 37 2.8 22 -5.6 54 54 NW 10 17 30.23 1024 10 16.0934 0 0
11:52 pm 23:52 Mostly Cloudy 35 1.7 22 -5.6 59 59 WNW 5 7 30.24 1024 10 16.0934 0 0

Powered by AerisWeather